Volver al catálogo

STARLINK-11406

ActivoComunicacionesVLEO
NORAD 63057·PAYLOAD·🇺🇸 United States

Lanzado Feb 21, 2025 desde Cape Canaveral Space Force Station

Loading…

Próximos Pases (próximas 24 horas)

TLE

ActualizadoSource: CelesTrak SupGP

Época: Sep 14, 2026, 21:12 UTC

1 63057C 25035F   26257.88381944 -.00100940  00000+0 -78372-3 0  2575
2 63057  43.0002 314.8716 0001509 279.4167 200.2967 15.70896114    12

Sigue STARLINK-11406 en tiempo real con AllMySat

Download on the App Store